FW8702 Weather Reports


time (UTC)temp
F
wind
direction
speed
knots
gust
knots
rain 1hr
in
rain 24hr
in
rain mn
in
humidity
%
barometer
mb
20260901200023 71 289 0.9 1.7 0.00 0.00 0.00 82 1019.6
20260901194513 71 325 0.0 1.7 0.00 0.00 0.00 82 1019.4
20260901193002 71 281 0.9 1.7 0.00 0.00 0.00 82 1019.4
20260901191505 72 283 0.0 1.7 0.00 0.00 0.00 82 1019.2
20260901190056 72 283 0.0 1.7 0.00 0.00 0.00 81 1019.0
20260901184534 73 284 0.0 0.0 0.00 0.00 0.00 81 1018.7
20260901183100 75 281 0.0 2.6 0.00 0.00 0.00 80 1018.6
20260901181534 76 341 0.0 0.0 0.00 0.00 0.00 77 1018.4
20260901180017 76 338 0.9 2.6 0.00 0.00 0.00 77 1018.4
20260901174547 77 335 0.0 1.7 0.00 0.00 0.00 77 1018.3
20260901173052 77 284 0.0 2.6 0.00 0.00 0.00 77 1018.1
20260901171559 78 276 0.0 1.7 0.00 0.00 0.00 75 1018.1
20260901170018 81 285 0.0 0.9 0.00 0.00 0.00 67 1017.9
20260901164545 83 285 0.0 0.0 0.00 0.00 0.00 62 1018.1
20260901163026 84 257 0.0 2.6 0.00 0.00 0.00 57 1018.1
20260901161512 84 240 0.9 1.7 0.00 0.00 0.00 58 1018.2
20260901160033 84 256 0.0 2.6 0.00 0.00 0.00 59 1018.1
20260901154602 84 243 0.0 2.6 0.00 0.00 0.00 59 1018.3
20260901153040 84 206 0.9 3.5 0.00 0.00 0.00 59 1018.3
20260901151535 85 248 0.9 3.5 0.00 0.00 0.00 56 1018.1
20260901150041 84 242 0.0 4.3 0.00 0.00 0.00 60 1018.2
20260901144523 85 198 0.9 4.3 0.00 0.00 0.00 57 1018.3
20260901143047 84 220 1.7 5.2 0.00 0.00 0.00 60 1018.4
20260901141518 86 222 0.9 5.2 0.00 0.00 0.00 56 1018.5
20260901134522 85 249 0.9 3.5 0.00 0.00 0.00 57 1018.7
20260901133054 84 118 0.9 7.0 0.00 0.00 0.00 58 1018.8
20260901131509 85 211 0.9 5.2 0.00 0.00 0.00 59 1018.9
20260901130033 83 281 0.0 6.1 0.00 0.00 0.00 60 1019.1
20260901124516 83 104 1.7 5.2 0.00 0.00 0.00 60 1019.3
20260901123058 83 233 0.0 4.3 0.00 0.00 0.00 58 1019.3
20260901121514 82 223 1.7 4.3 0.00 0.00 0.00 58 1019.5
20260901120025 81 144 0.9 3.5 0.00 0.00 0.00 60 1019.6
20260901114501 81 36 0.9 3.5 0.00 0.00 0.00 59 1019.9
20260901113049 81 78 0.0 4.3 0.00 0.00 0.00 57 1019.8
20260901111550 82 261 0.9 4.3 0.00 0.00 0.00 55 1019.9
20260901110055 81 118 1.7 5.2 0.00 0.00 0.00 55 1020.0
20260901104557 79 256 0.0 2.6 0.00 0.00 0.00 57 1020.0
20260901103026 79 294 3.5 7.0 0.00 0.00 0.00 55 1020.1
20260901101504 79 261 1.7 7.0 0.00 0.00 0.00 53 1020.3
20260901100051 78 279 2.6 6.1 0.00 0.00 0.00 54 1020.3
20260901094514 78 262 0.0 2.6 0.00 0.00 0.00 53 1020.4
20260901093101 77 86 0.9 5.2 0.00 0.00 0.00 51 1020.4
20260901091556 77 343 0.0 2.6 0.00 0.00 0.00 50 1020.5
20260901090018 76 358 1.7 3.5 0.00 0.00 0.00 52 1020.4
20260901084511 77 289 0.0 0.9 0.00 0.00 0.00 52 1020.2
20260901083047 76 8 0.0 1.7 0.00 0.00 0.00 51 1020.3
20260901081541 75 334 0.0 1.7 0.00 0.00 0.00 57 1020.2
20260901080022 75 281 0.9 2.6 0.00 0.00 0.00 54 1020.1
20260901074533 76 281 0.0 2.6 0.00 0.00 0.00 51 1019.9
20260901073032 75 350 1.7 8.7 0.00 0.00 0.00 52 1019.7
20260901071559 76 44 1.7 7.0 0.00 0.00 0.00 49 1019.5
20260901070104 75 23 0.0 7.0 0.00 0.00 0.00 53 1019.5
20260901064526 74 54 2.6 7.0 0.00 0.00 0.00 50 1019.3
20260901063016 74 13 2.6 8.7 0.00 0.00 0.00 49 1019.2
20260901061504 73 54 1.7 7.8 0.00 0.00 0.00 51 1019.0
20260901060101 70 8 1.7 7.8 0.00 0.00 0.00 56 1018.8
20260901054532 66 277 0.9 3.5 0.00 0.00 0.00 67 1018.7
20260901053054 63 304 0.0 2.6 0.00 0.00 0.00 74 1018.4
20260901051517 63 255 0.9 2.6 0.00 0.00 0.00 74 1018.1
20260901050101 63 3 0.0 1.7 0.00 0.00 0.00 73 1018.3
20260901044535 63 208 0.0 0.0 0.00 0.00 0.00 73 1018.1
20260901043042 63 254 0.0 2.6 0.00 0.00 0.00 74 1017.8
20260901041545 63 261 0.9 2.6 0.00 0.00 0.00 74 1017.6
20260901040030 64 267 0.0 3.5 0.00 0.00 0.00 73 1017.5
20260901034516 64 285 0.9 2.6 0.00 0.00 0.00 73 1017.3
20260901033054 64 302 0.0 2.6 0.00 0.00 0.00 72 1017.4
20260901031525 65 318 0.0 2.6 0.00 0.00 0.00 70 1017.1
20260901030032 65 43 0.0 1.7 0.00 0.00 0.00 70 1017.1
20260901024552 66 279 0.9 2.6 0.00 0.00 0.00 67 1017.3
20260901023037 67 279 0.0 4.3 0.00 0.00 0.00 66 1017.2
20260901021551 67 284 1.7 5.2 0.00 0.00 0.00 67 1017.0
20260901020003 66 346 0.9 4.3 0.00 0.00 0.00 71 1017.2
20260901014520 66 265 0.9 3.5 0.00 0.00 0.00 71 1017.2
20260901013027 68 268 1.7 4.3 0.00 0.00 0.00 68 1017.1
20260901011523 67 279 0.9 2.6 0.00 0.00 0.00 70 1017.2
20260901010008 70 289 1.7 3.5 0.00 0.00 0.00 64 1017.1
20260901004512 69 329 0.9 3.5 0.00 0.00 0.00 70 1017.0
20260901003034 68 290 0.0 2.6 0.00 0.00 0.00 73 1017.1
20260901001522 69 256 1.7 4.3 0.00 0.00 0.00 71 1017.0
20260901000014 69 350 0.0 2.6 0.00 0.00 0.00 76 1017.0
20260831234517 68 340 1.7 3.5 0.00 0.00 0.00 79 1017.0
20260831233058 68 292 0.0 1.7 0.00 0.00 0.00 80 1016.8
20260831231508 68 287 0.0 2.6 0.00 0.00 0.00 82 1016.8
20260831230106 68 279 0.0 3.5 0.00 0.00 0.00 82 1016.8
20260831224603 69 315 0.0 1.7 0.00 0.00 0.00 82 1016.7
20260831223012 69 321 0.0 1.7 0.00 0.00 0.00 82 1016.7
20260831221604 69 350 0.0 0.0 0.00 0.00 0.00 82 1016.6
20260831220109 70 334 0.0 0.9 0.00 0.00 0.00 81 1016.4
20260831214537 70 279 0.0 3.5 0.00 0.00 0.00 81 1016.4
20260831213028 71 314 0.0 2.6 0.00 0.00 0.00 80 1016.5
20260831211604 72 49 0.9 3.5 0.00 0.00 0.00 78 1016.4
20260831210020 73 286 0.0 3.5 0.00 0.00 0.00 78 1016.3
20260831204600 73 288 1.7 4.3 0.00 0.00 0.00 80 1016.1
20260831203115 71 354 0.0 2.6 0.00 0.00 0.00 81 1016.2
20260831201510 72 294 0.0 0.9 0.00 0.00 0.00 80 1015.9